Regional Weather Roundup
Issued by NWS Binghamton, NY

Home | Current Version | Previous Version | Text Only | Print | Product List | Glossary On
Versions: 1 2 3 4 5 6 7 8 9 10 11 12 13 14 15 16 17 18 19 20 21 22 23 24 25 26 27 28 29 30 31 32 33 34 35 36 37 38 39 40 41 42 43 44 45 46 47 48 49 50
000
ASUS41 KBGM 242210
RWRBGM

REGIONAL WEATHER ROUNDUP
NATIONAL WEATHER SERVICE BINGHAMTON NY
600 PM EDT SAT JUN 24 2017

Note: "fair" indicates few or no clouds below 12,000 feet with no
significant weather and/or obstructions to visibility.

* = Station(s) that does not report precipitation, such as rain,
snow, etc, also no thunder or fog.

NYZ009-015>018-022>025-036-037-044>046-055>057-062-242300
...Central New York...

CITY           SKY/WX    TMP DP  RH WIND       PRES   REMARKS
Binghamton     MOSUNNY   75  52  43 NW13      29.83
Cortland       FAIR      73  57  56 NW6       29.84R
Dansville      SUNNY     77  47  34 W8G21     29.84S
Elmira         NOT AVBL
Seneca Falls   PTCLDY    75  54  46 NW13      29.83R
Ithaca         PTSUNNY   73  57  56 NW13      29.84R
Hamilton       CLOUDY    72  52  49 NW10      29.84R
Hornell        SUNNY     73  46  38 W14G29    29.89S
Monticello     SUNNY     77  54  44 W6        29.85S
Norwich        MOSUNNY   75  54  46 W9        29.82S
Oneonta        SUNNY     73 N/A N/A SW7       29.83S
Penn Yan       SUNNY     77  47  34 W15G26    29.83S
Rome           PTSUNNY   74  52  46 W13       29.81R
Sidney         MOSUNNY   75  54  46 W6        29.81S
Syracuse       MOSUNNY   74  54  49 NW12      29.80F
$$

PAZ038>040-043-044-047-048-072-242300
...Northeast Pennsylvania...

CITY           SKY/WX    TMP DP  RH WIND       PRES   REMARKS
Hazleton         N/A     79  54  41 W5        29.90S
Scranton       MOSUNNY   83  56  39 W12       29.82S
$$
&&
KEY
WCI = Wind Chill Index
VSB = Visibility
HX  = Heat Index
$$



USA.gov is the U.S. government's official web portal to all federal, state and local government web resources and services.